Powrót do katalogu

MONITOR-2

AktywnyNaukaSSO
NORAD 57184·PAYLOAD·🇷🇺 Russia
Ta nazwa satelity nie została jeszcze potwierdzona przez oficjalne źródła.

Wystrzelony Jun 27, 2023 z Vostochny Cosmodrome

Loading…

Następne Przeloty (najbliższe 24 godziny)

TLE

ŚwieżeSource: Space-Track

Epoka: Sep 14, 2026, 14:56 UTC

1 57184U 23091U   26257.62277849  .00003798  00000-0  18140-3 0  9991
2 57184  97.4976 315.3258 0011656 154.0856 206.0964 15.19598346177535

Śledź MONITOR-2 w czasie rzeczywistym z AllMySat

Download on the App Store